Home   Weather   Vitória   Past weeks
Flag for Brazil

Past Weather in Vitória, Espírito Santo, Brazil — Yesterday and Last 2 Weeks

Now
52 °F

Sunny.


Feels Like: 48 °F
Forecast: 71 / 61 °F
Wind: 10 mph from Southeast

Location: Belo Horizonte Airport

Current Time: Jul 19, 2019 at 7:36:01 am

Latest Report: Jul 19, 2019 at 7:00 am


Visibility: 10 mi

Pressure: 30.33 "Hg

Humidity: 82%

Dew Point: 46 °F

Location of VitóriaLocation

Past Weather in Vitória — Graph

°F

Vitória Temperature Yesterday

Maximum temperature yesterday: 68 °F (at 1:00 pm)
Minimum temperature yesterday: 50 °F (at 3:00 am)
Average temperature yesterday: 59 °F

High & Low Weather Summary for the Past Weeks

 TemperatureHumidityPressure
High81 °F (Jul 4, 1:00 pm)100% (Jul 6, 6:00 am)30.36 "Hg (Jul 6, 6:00 am)
Low45 °F (Jul 7, 5:00 am)26% (Jul 4, 1:00 pm)29.98 "Hg (Jul 4, 2:00 pm)
Average62 °F61%30.18 "Hg
* Reported Jul 4 6:00 am — Jul 19 6:00 am, Vitória. Weather by CustomWeather, © 2019

Note: Actual official high and low records may vary slightly from our data, if they occured in-between our weather recording intervals... More about our weather records

Advertising

Vitória Weather History for the Previous 24 Hours

Scroll right to see more
 ConditionsComfort  
Time TempWeatherWind HumidityBarometerVisibility
6:00 am
Fri, Jul 19
52 °FClear.13 mph88%30.33 "Hg10 mi
5:00 am52 °FClear.12 mph88%30.27 "Hg10 mi
4:00 am54 °FClear.14 mph82%30.30 "Hg10 mi
3:00 am54 °FClear.13 mph82%30.33 "Hg10 mi
2:00 am54 °FClear.10 mph72%30.33 "Hg10 mi
1:00 am55 °FClear.9 mph67%30.33 "Hg10 mi
12:00 am55 °FClear.13 mph67%30.33 "Hg10 mi
11:00 pm
Thu, Jul 18
57 °FClear.8 mph63%30.33 "Hg10 mi
10:00 pm57 °FClear.8 mph63%30.33 "Hg10 mi
9:00 pm57 °FClear.10 mph67%30.33 "Hg10 mi
8:00 pm59 °FClear.12 mph63%30.30 "Hg10 mi
7:00 pm61 °FClear.13 mph59%30.30 "Hg10 mi
6:00 pm63 °FClear.15 mph56%30.27 "Hg10 mi
5:00 pm66 °FSunny.15 mph49%30.27 "Hg10 mi
4:00 pm68 °FSunny.13 mph43%30.27 "Hg10 mi
3:00 pm68 °FSunny.14 mph46%30.27 "Hg10 mi
2:00 pm68 °FSunny.13 mph43%30.30 "Hg10 mi
1:00 pm68 °FSunny.15 mph46%30.30 "Hg10 mi
12:00 pm66 °FSunny.14 mph52%30.33 "Hg10 mi
11:00 am64 °FSunny.14 mph56%30.36 "Hg10 mi
10:00 am63 °FSunny.17 mph59%30.36 "Hg10 mi
9:00 am59 °FSunny.15 mph68%30.36 "Hg10 mi
8:00 am54 °FSunny.8 mph82%30.33 "Hg10 mi
7:00 am54 °FSunny.8 mph77%30.30 "Hg10 mi
Weather by CustomWeather, © 2019

See weather overview